Regional Weather Roundup
Issued by NWS

Home | Current Version | Previous Version | Text Only | Print | Product List | Glossary On
Versions: 1 2 3 4 5 6 7 8 9 10 11 12 13 14 15 16 17 18 19 20 21 22 23 24 25 26 27
000
ASUS46 KPQR 120110
RWROR

OREGON REGIONAL WEATHER ROUNDUP
NATIONAL WEATHER SERVICE PORTLAND OR
500 PM PST MON DEC 11 2017

NOTE: "FAIR" INDICATES FEW OR NO CLOUDS BELOW 12,000 FEET WITH
NO SIGNIFICANT WEATHER AND/OR OBSTRUCTIONS TO VISIBILITY.

ORZ001>013-120200-
NORTHWEST OREGON


CITY           SKY/WX    TMP DP  RH WIND       PRES   REMARKS
ASTORIA        CLEAR     44  31  60 E6        30.33R
NEWPORT        CLEAR     46  32  57 E12       30.36R
PORTLAND       PTCLDY    37  26  64 SE15      30.44S WCI  28
VANCOUVER WA   CLEAR     38  28  67 SE7       30.44S WCI  33
SCAPPOOSE      PTCLDY    38  25  59 S6        30.44R WCI  33
HILLSBORO      PTCLDY    38  26  62 E7        30.43S WCI  33
AURORA         PTCLDY    36  25  64 N5        30.44R WCI  32
MCMINNVILLE    CLEAR     39  29  67 CALM      30.43S
SALEM          CLEAR     38  28  67 E3        30.41S
CORVALLIS      CLEAR     34  30  85 VRB3      30.43S
EUGENE         PTCLDY    32  29  88 CALM      30.42S
$$

ORZ021-028-120200-
SOUTHWEST OREGON


CITY           SKY/WX    TMP DP  RH WIND       PRES   REMARKS
NORTH BEND     CLEAR     51  40  65 SE6       30.34R
BROOKINGS      CLOUDY    54  31  41 CALM      30.33R
ROSEBURG       CLOUDY    35  35 100 CALM      30.40R FOG
SEXTON SUMMIT  PTCLDY    53   4  13 S6        30.38S
GRANTS PASS    FOG       32  32 100 CALM      30.46R VSB 1/4
MEDFORD        PTCLDY    39  33  79 CALM      30.39R
$$

ORZ014>016-041-120200-
COLUMBIA GORGE


CITY           SKY/WX    TMP DP  RH WIND       PRES   REMARKS
TROUTDALE      PTCLDY    37  25  61 E18G29    30.46R WCI  27
HOOD RIVER     CLOUDY    32  25  74 CALM      30.66R
THE DALLES     CLOUDY    35  25  66 SE3       30.68F
$$

ORZ029>031-041-044-049-050-061>064-502-503-505>511-120200-
EASTERN OREGON


CITY           SKY/WX    TMP DP  RH WIND       PRES   REMARKS
MADRAS         CLOUDY   N/A N/A N/A NE6       30.56F
REDMOND        CLOUDY    22  16  78 E3        30.49S
BEND           MOCLDY    27  18  69 CALM      30.48S
PRINEVILLE     CLOUDY    27  19  74 CALM      30.50R
KLAMATH FALLS  MOCLDY    31  21  66 N3        30.44S
LAKEVIEW       MOCLDY    28  23  81 N3        30.47R
HERMISTON      CLOUDY    31  25  78 S7        30.66F WCI  24
PENDLETON      CLOUDY    28  24  85 CALM      30.61S
JOHN DAY       MOCLDY    30  21  69 CALM      30.47R
MEACHAM        CLOUDY    21  18  88 CALM      30.47R FOG
LA GRANDE      MOCLDY    28  22  78 E9        30.54R WCI  19
BAKER CITY     MOCLDY    24  18  77 E8        30.56S WCI  15
BURNS          CLOUDY    19  17  92 E6        30.56R WCI  11
ROME             N/A     18  15  88 E3        30.57R
ONTARIO        CLOUDY    30  24  78 S3        30.69F
$$




USA.gov is the U.S. government's official web portal to all federal, state and local government web resources and services.